Time,TemperatureF,DewpointF,PressureIn,WindDirection,WindDirectionDegrees,WindSpeedMPH,WindSpeedGustMPH,Humidity,HourlyPrecipIn,Conditions,Clouds,dailyrainin,SoftwareType,DateUTC
2013-06-20 00:01:00,53.1,51.7,30.12,NE,39,0.0,0.0,95,0.00,CLR,,0.00,WeatherDisplay:10.37,2013-06-20 04:01:00,
2013-06-20 00:02:00,53.1,51.7,30.12,NE,39,0.0,0.0,95,0.00,CLR,,0.00,WeatherDisplay:10.37,2013-06-20 04:02:00,
2013-06-20 00:04:00,53.1,51.7,30.12,NE,39,0.0,0.0,95,0.00,CLR,,0.00,WeatherDisplay:10.37,2013-06-20 04:04:00,
2013-06-20 00:09:00,52.9,51.5,30.12,NE,39,0.0,0.0,95,0.00,CLR,,0.00,WeatherDisplay:10.37,2013-06-20 04:09:00,
2013-06-20 00:14:00,52.9,51.8,30.11,NE,39,0.0,0.0,96,0.00,CLR,,0.00,WeatherDisplay:10.37,2013-06-20 04:14:00,
2013-06-20 00:19:00,52.8,51.7,30.12,NE,39,0.0,0.0,96,0.00,CLR,,0.00,WeatherDisplay:10.37,2013-06-20 04:19:00,
2013-06-20 00:25:00,52.8,51.7,30.12,NE,39,0.0,0.0,96,0.00,CLR,,0.00,WeatherDisplay:10.37,2013-06-20 04:25:00,
2013-06-20 00:30:00,52.5,51.4,30.12,NE,39,0.0,0.0,96,0.00,CLR,,0.00,WeatherDisplay:10.37,2013-06-20 04:30:00,
2013-06-20 00:35:00,52.3,51.2,30.12,NE,39,0.0,0.0,96,0.00,CLR,,0.00,WeatherDisplay:10.37,2013-06-20 04:35:00,
2013-06-20 00:40:00,52.2,51.4,30.11,NE,39,0.0,0.0,97,0.00,CLR,,0.00,WeatherDisplay:10.37,2013-06-20 04:40:00,
2013-06-20 00:45:00,52.2,51.4,30.12,NE,39,0.0,0.0,97,0.00,CLR,,0.00,WeatherDisplay:10.37,2013-06-20 04:45:00,
2013-06-20 00:51:00,52.2,51.4,30.12,NE,39,0.0,0.0,97,0.00,CLR,,0.00,WeatherDisplay:10.37,2013-06-20 04:51:00,
2013-06-20 00:56:00,52.0,51.2,30.12,NE,39,0.0,0.0,97,0.00,CLR,,0.00,WeatherDisplay:10.37,2013-06-20 04:56:00,
2013-06-20 01:01:00,51.9,50.8,30.12,NE,39,0.0,0.0,96,0.00,CLR,,0.00,WeatherDisplay:10.37,2013-06-20 05:01:00,
2013-06-20 01:06:00,51.7,50.6,30.12,NE,39,0.0,0.0,96,0.00,CLR,,0.00,WeatherDisplay:10.37,2013-06-20 05:06:00,
2013-06-20 01:12:00,51.6,50.8,30.12,NE,39,0.0,0.0,97,0.00,CLR,,0.00,WeatherDisplay:10.37,2013-06-20 05:12:00,
2013-06-20 01:17:00,51.6,50.8,30.12,NE,39,0.0,0.0,97,0.00,CLR,,0.00,WeatherDisplay:10.37,2013-06-20 05:17:00,
2013-06-20 01:22:00,51.4,50.6,30.12,NE,39,0.0,0.0,97,0.00,CLR,,0.00,WeatherDisplay:10.37,2013-06-20 05:22:00,
2013-06-20 01:27:00,51.3,50.5,30.13,NE,39,0.0,0.0,97,0.00,CLR,,0.00,WeatherDisplay:10.37,2013-06-20 05:27:00,
2013-06-20 01:32:00,51.3,50.5,30.13,NE,39,0.0,0.0,97,0.00,CLR,,0.00,WeatherDisplay:10.37,2013-06-20 05:32:00,
2013-06-20 01:38:00,51.1,50.3,30.13,NE,39,0.0,0.0,97,0.00,CLR,,0.00,WeatherDisplay:10.37,2013-06-20 05:38:00,
2013-06-20 01:43:00,51.1,50.3,30.13,NE,39,0.0,0.0,97,0.00,CLR,,0.00,WeatherDisplay:10.37,2013-06-20 05:43:00,
2013-06-20 01:48:00,51.0,50.2,30.13,NE,39,0.0,0.0,97,0.00,CLR,,0.00,WeatherDisplay:10.37,2013-06-20 05:48:00,
2013-06-20 01:53:00,50.8,50.0,30.13,NE,39,0.0,0.0,97,0.00,CLR,,0.00,WeatherDisplay:10.37,2013-06-20 05:53:00,
2013-06-20 01:58:00,50.8,50.0,30.13,NE,39,0.0,0.0,97,0.00,CLR,,0.00,WeatherDisplay:10.37,2013-06-20 05:58:00,
2013-06-20 02:04:00,50.7,50.2,30.13,NE,39,0.0,0.0,98,0.00,CLR,,0.00,WeatherDisplay:10.37,2013-06-20 06:04:00,
2013-06-20 02:09:00,50.5,50.0,30.13,NE,39,0.0,0.0,98,0.00,CLR,,0.00,WeatherDisplay:10.37,2013-06-20 06:09:00,
2013-06-20 02:14:00,50.5,50.0,30.14,NE,39,0.0,0.0,98,0.00,CLR,,0.00,WeatherDisplay:10.37,2013-06-20 06:14:00,
2013-06-20 02:20:00,50.4,49.9,30.14,NE,39,0.0,0.0,98,0.00,CLR,,0.00,WeatherDisplay:10.37,2013-06-20 06:20:00,
2013-06-20 02:25:00,50.4,49.9,30.14,NE,39,0.0,0.0,98,0.00,CLR,,0.00,WeatherDisplay:10.37,2013-06-20 06:25:00,
2013-06-20 02:30:00,50.4,49.9,30.14,NE,39,0.0,0.0,98,0.00,CLR,,0.00,WeatherDisplay:10.37,2013-06-20 06:30:00,
2013-06-20 02:35:00,50.4,49.9,30.14,NE,39,0.0,0.0,98,0.00,CLR,,0.00,WeatherDisplay:10.37,2013-06-20 06:35:00,
2013-06-20 02:41:00,50.2,49.7,30.14,NE,39,0.0,0.0,98,0.00,CLR,,0.00,WeatherDisplay:10.37,2013-06-20 06:41:00,
2013-06-20 02:46:00,49.9,49.4,30.14,NE,39,0.0,0.0,98,0.00,CLR,,0.00,WeatherDisplay:10.37,2013-06-20 06:46:00,
2013-06-20 02:51:00,49.8,49.3,30.14,NE,39,0.0,0.0,98,0.00,CLR,,0.00,WeatherDisplay:10.37,2013-06-20 06:51:00,
2013-06-20 02:56:00,49.6,49.1,30.14,NE,39,0.0,0.0,98,0.00,CLR,,0.00,WeatherDisplay:10.37,2013-06-20 06:56:00,
2013-06-20 03:01:00,49.6,49.1,30.14,NE,39,0.0,0.0,98,0.00,CLR,,0.00,WeatherDisplay:10.37,2013-06-20 07:01:00,
2013-06-20 03:07:00,49.6,49.1,30.14,NE,39,0.0,0.0,98,0.00,CLR,,0.00,WeatherDisplay:10.37,2013-06-20 07:07:00,
2013-06-20 03:12:00,49.5,49.0,30.14,NE,39,0.0,0.0,98,0.00,CLR,,0.00,WeatherDisplay:10.37,2013-06-20 07:12:00,
2013-06-20 03:17:00,49.5,49.0,30.14,NE,39,0.0,0.0,98,0.00,CLR,,0.00,WeatherDisplay:10.37,2013-06-20 07:17:00,
2013-06-20 03:22:00,49.4,48.9,30.14,NE,39,0.0,0.0,98,0.00,CLR,,0.00,WeatherDisplay:10.37,2013-06-20 07:22:00,
2013-06-20 03:28:00,49.2,48.7,30.15,NE,39,0.0,0.0,98,0.00,CLR,,0.00,WeatherDisplay:10.37,2013-06-20 07:28:00,
2013-06-20 03:33:00,49.2,48.7,30.15,NE,39,0.0,0.0,98,0.00,CLR,,0.00,WeatherDisplay:10.37,2013-06-20 07:33:00,
2013-06-20 03:38:00,49.1,48.8,30.15,NE,39,0.0,0.0,99,0.00,CLR,,0.00,WeatherDisplay:10.37,2013-06-20 07:38:00,
2013-06-20 03:43:00,49.1,48.6,30.15,NE,39,0.0,0.0,98,0.00,CLR,,0.00,WeatherDisplay:10.37,2013-06-20 07:43:00,
2013-06-20 03:48:00,49.1,48.8,30.15,NE,39,0.0,0.0,99,0.00,CLR,,0.00,WeatherDisplay:10.37,2013-06-20 07:48:00,
2013-06-20 03:54:00,49.2,48.9,30.15,NE,39,0.0,0.0,99,0.00,CLR,,0.00,WeatherDisplay:10.37,2013-06-20 07:54:00,
2013-06-20 03:59:00,48.9,48.4,30.15,NE,39,0.0,0.0,98,0.00,CLR,,0.00,WeatherDisplay:10.37,2013-06-20 07:59:00,
2013-06-20 04:04:00,48.8,48.3,30.15,NE,39,0.0,0.0,98,0.00,CLR,,0.00,WeatherDisplay:10.37,2013-06-20 08:04:00,
2013-06-20 04:09:00,48.6,48.1,30.16,NE,39,0.0,0.0,98,0.00,CLR,,0.00,WeatherDisplay:10.37,2013-06-20 08:09:00,
2013-06-20 04:14:00,48.5,48.0,30.16,NE,39,0.0,0.0,98,0.00,CLR,,0.00,WeatherDisplay:10.37,2013-06-20 08:14:00,
2013-06-20 04:19:00,48.3,48.0,30.16,NE,39,0.0,0.0,99,0.00,CLR,,0.00,WeatherDisplay:10.37,2013-06-20 08:19:00,
2013-06-20 04:25:00,48.3,48.0,30.16,NE,39,0.0,0.0,99,0.00,CLR,,0.00,WeatherDisplay:10.37,2013-06-20 08:25:00,
2013-06-20 04:30:00,48.3,48.0,30.16,NE,39,0.0,0.0,99,0.00,CLR,,0.00,WeatherDisplay:10.37,2013-06-20 08:30:00,
2013-06-20 04:35:00,48.3,48.0,30.16,NE,39,0.0,0.0,99,0.00,CLR,,0.00,WeatherDisplay:10.37,2013-06-20 08:35:00,
2013-06-20 04:40:00,48.3,48.0,30.16,NE,39,0.0,0.0,99,0.00,CLR,,0.00,WeatherDisplay:10.37,2013-06-20 08:40:00,
2013-06-20 04:45:00,48.2,47.9,30.16,NE,39,0.0,0.0,99,0.00,CLR,,0.00,WeatherDisplay:10.37,2013-06-20 08:45:00,
2013-06-20 04:51:00,48.0,47.7,30.16,NE,39,0.0,0.0,99,0.00,CLR,,0.00,WeatherDisplay:10.37,2013-06-20 08:51:00,
2013-06-20 04:56:00,48.0,47.7,30.17,NE,39,0.0,0.0,99,0.00,CLR,,0.00,WeatherDisplay:10.37,2013-06-20 08:56:00,
2013-06-20 05:01:00,47.9,47.6,30.17,NE,39,0.0,0.0,99,0.00,CLR,,0.00,WeatherDisplay:10.37,2013-06-20 09:01:00,
2013-06-20 05:06:00,47.7,47.4,30.17,NE,39,0.0,0.0,99,0.00,CLR,,0.00,WeatherDisplay:10.37,2013-06-20 09:06:00,
2013-06-20 05:12:00,47.6,47.3,30.17,NE,39,0.0,0.0,99,0.00,CLR,,0.00,WeatherDisplay:10.37,2013-06-20 09:12:00,
2013-06-20 05:17:00,47.4,46.9,30.17,NE,39,0.0,0.0,98,0.00,CLR,,0.00,WeatherDisplay:10.37,2013-06-20 09:17:00,
2013-06-20 05:22:00,47.4,46.9,30.17,NE,39,0.0,0.0,98,0.00,CLR,,0.00,WeatherDisplay:10.37,2013-06-20 09:22:00,
2013-06-20 05:27:00,47.3,47.0,30.17,NE,39,0.0,0.0,99,0.00,CLR,,0.00,WeatherDisplay:10.37,2013-06-20 09:27:00,
2013-06-20 05:33:00,47.3,47.0,30.17,NE,39,0.0,0.0,99,0.00,CLR,,0.00,WeatherDisplay:10.37,2013-06-20 09:33:00,
2013-06-20 05:38:00,47.3,47.0,30.17,NE,39,0.0,0.0,99,0.00,CLR,,0.00,WeatherDisplay:10.37,2013-06-20 09:38:00,
2013-06-20 05:43:00,47.3,47.0,30.17,NE,39,0.0,0.0,99,0.00,CLR,,0.00,WeatherDisplay:10.37,2013-06-20 09:43:00,
2013-06-20 05:48:00,47.1,46.8,30.18,NE,39,0.0,0.0,99,0.00,CLR,,0.00,WeatherDisplay:10.37,2013-06-20 09:48:00,
2013-06-20 05:53:00,47.0,46.7,30.18,NE,39,0.0,0.0,99,0.00,CLR,,0.00,WeatherDisplay:10.37,2013-06-20 09:53:00,
2013-06-20 05:59:00,47.1,46.8,30.18,NE,39,0.0,0.0,99,0.00,CLR,,0.00,WeatherDisplay:10.37,2013-06-20 09:59:00,
2013-06-20 06:04:00,47.1,46.8,30.19,NE,39,0.0,0.0,99,0.00,CLR,,0.00,WeatherDisplay:10.37,2013-06-20 10:04:00,
2013-06-20 06:09:00,47.3,47.0,30.19,NE,39,0.0,0.0,99,0.00,CLR,,0.00,WeatherDisplay:10.37,2013-06-20 10:09:00,
2013-06-20 06:14:00,47.3,47.0,30.19,NE,39,0.0,0.0,99,0.00,CLR,,0.00,WeatherDisplay:10.37,2013-06-20 10:14:00,
2013-06-20 06:19:00,47.3,47.0,30.19,NE,39,0.0,0.0,99,0.00,CLR,,0.00,WeatherDisplay:10.37,2013-06-20 10:19:00,
2013-06-20 06:25:00,47.4,47.1,30.19,NE,39,0.0,0.0,99,0.00,CLR,,0.00,WeatherDisplay:10.37,2013-06-20 10:25:00,
2013-06-20 06:30:00,47.7,47.4,30.19,NE,39,0.0,0.0,99,0.00,CLR,,0.00,WeatherDisplay:10.37,2013-06-20 10:30:00,
2013-06-20 06:35:00,47.9,47.6,30.19,NE,39,0.0,0.0,99,0.00,CLR,,0.00,WeatherDisplay:10.37,2013-06-20 10:35:00,
2013-06-20 06:40:00,48.0,48.0,30.19,NE,39,0.0,0.0,100,0.00,CLR,,0.00,WeatherDisplay:10.37,2013-06-20 10:40:00,
2013-06-20 06:45:00,48.5,48.5,30.19,NE,39,0.0,0.0,100,0.00,CLR,,0.00,WeatherDisplay:10.37,2013-06-20 10:45:00,
2013-06-20 06:50:00,48.8,48.8,30.19,NE,39,0.0,0.0,100,0.00,CLR,,0.00,WeatherDisplay:10.37,2013-06-20 10:50:00,
2013-06-20 06:56:00,48.9,48.6,30.19,NE,39,0.0,0.0,99,0.00,CLR,,0.00,WeatherDisplay:10.37,2013-06-20 10:56:00,
2013-06-20 07:01:00,49.2,48.9,30.20,NE,39,0.0,0.0,99,0.00,CLR,,0.00,WeatherDisplay:10.37,2013-06-20 11:01:00,
2013-06-20 07:06:00,49.5,49.0,30.20,NE,39,0.0,0.0,98,0.00,CLR,,0.00,WeatherDisplay:10.37,2013-06-20 11:06:00,
2013-06-20 07:11:00,49.6,49.1,30.20,NE,39,0.0,0.0,98,0.00,CLR,,0.00,WeatherDisplay:10.37,2013-06-20 11:11:00,
2013-06-20 07:16:00,49.9,49.4,30.20,NE,39,0.0,0.0,98,0.00,CLR,,0.00,WeatherDisplay:10.37,2013-06-20 11:16:00,
2013-06-20 07:22:00,50.1,49.6,30.20,WNW,300,0.0,0.0,98,0.00,CLR,,0.00,WeatherDisplay:10.37,2013-06-20 11:22:00,
2013-06-20 07:27:00,50.4,49.6,30.20,WNW,300,0.0,0.0,97,0.00,CLR,,0.00,WeatherDisplay:10.37,2013-06-20 11:27:00,
2013-06-20 07:32:00,50.5,49.7,30.20,WNW,300,0.0,0.0,97,0.00,CLR,,0.00,WeatherDisplay:10.37,2013-06-20 11:32:00,
2013-06-20 07:37:00,50.8,49.7,30.20,WNW,300,0.0,0.0,96,0.00,CLR,,0.00,WeatherDisplay:10.37,2013-06-20 11:37:00,
2013-06-20 07:43:00,51.1,50.0,30.20,WNW,300,0.0,0.0,96,0.00,CLR,,0.00,WeatherDisplay:10.37,2013-06-20 11:43:00,
2013-06-20 07:48:00,51.4,50.3,30.20,WNW,300,0.0,1.1,96,0.00,CLR,,0.00,WeatherDisplay:10.37,2013-06-20 11:48:00,
2013-06-20 07:53:00,51.9,50.5,30.20,WNW,300,0.0,0.0,95,0.00,CLR,,0.00,WeatherDisplay:10.37,2013-06-20 11:53:00,
2013-06-20 07:58:00,52.2,50.2,30.20,WNW,300,0.0,0.0,93,0.00,CLR,,0.00,WeatherDisplay:10.37,2013-06-20 11:58:00,
2013-06-20 08:04:00,52.6,50.6,30.21,WNW,300,0.0,0.0,93,0.00,CLR,,0.00,WeatherDisplay:10.37,2013-06-20 12:04:00,
2013-06-20 08:09:00,53.2,51.2,30.21,WNW,300,0.0,0.0,93,0.00,CLR,,0.00,WeatherDisplay:10.37,2013-06-20 12:09:00,
2013-06-20 08:14:00,53.6,51.3,30.21,North,5,0.4,2.3,92,0.00,CLR,,0.00,WeatherDisplay:10.37,2013-06-20 12:14:00,
2013-06-20 08:19:00,54.1,51.5,30.21,North,5,0.1,0.0,91,0.00,CLR,,0.00,WeatherDisplay:10.37,2013-06-20 12:19:00,
2013-06-20 08:24:00,54.7,51.8,30.20,North,5,0.2,2.3,90,0.00,CLR,,0.00,WeatherDisplay:10.37,2013-06-20 12:24:00,
2013-06-20 08:30:00,55.1,51.9,30.21,North,10,0.4,2.3,89,0.00,CLR,,0.00,WeatherDisplay:10.37,2013-06-20 12:30:00,
2013-06-20 08:35:00,55.6,52.4,30.20,ESE,115,0.0,1.1,89,0.00,CLR,,0.00,WeatherDisplay:10.37,2013-06-20 12:35:00,
2013-06-20 08:40:00,56.0,52.5,30.20,ESE,117,0.0,0.0,88,0.00,CLR,,0.00,WeatherDisplay:10.37,2013-06-20 12:40:00,
2013-06-20 08:45:00,56.6,52.8,30.20,ESE,112,0.0,0.0,87,0.00,CLR,,0.00,WeatherDisplay:10.37,2013-06-20 12:45:00,
2013-06-20 08:50:00,57.0,53.2,30.20,SE,126,1.6,3.5,87,0.00,CLR,,0.00,WeatherDisplay:10.37,2013-06-20 12:50:00,
2013-06-20 08:56:00,57.6,53.1,30.20,ENE,62,0.1,0.0,85,0.00,CLR,,0.00,WeatherDisplay:10.37,2013-06-20 12:56:00,
2013-06-20 09:01:00,58.1,53.3,30.20,ENE,63,0.1,1.0,84,0.00,CLR,,0.00,WeatherDisplay:10.37,2013-06-20 13:01:00,
2013-06-20 09:06:00,58.6,53.1,30.20,ENE,63,0.6,3.5,82,0.00,CLR,,0.00,WeatherDisplay:10.37,2013-06-20 13:06:00,
2013-06-20 09:11:00,59.2,52.7,30.20,ENE,63,0.0,1.1,79,0.00,CLR,,0.00,WeatherDisplay:10.37,2013-06-20 13:11:00,
2013-06-20 09:16:00,59.8,53.6,30.20,ENE,63,0.0,1.1,80,0.00,CLR,,0.00,WeatherDisplay:10.37,2013-06-20 13:16:00,
2013-06-20 09:22:00,60.5,53.3,30.20,ENE,63,0.0,1.1,77,0.00,CLR,,0.00,WeatherDisplay:10.37,2013-06-20 13:22:00,
2013-06-20 09:27:00,61.0,54.1,30.20,ENE,63,1.2,3.5,78,0.00,CLR,,0.00,WeatherDisplay:10.37,2013-06-20 13:27:00,
2013-06-20 09:32:00,61.8,53.8,30.19,ENE,63,0.1,1.1,75,0.00,CLR,,0.00,WeatherDisplay:10.37,2013-06-20 13:32:00,
2013-06-20 09:38:00,62.6,53.1,30.19,ENE,63,1.3,3.0,71,0.00,CLR,,0.00,WeatherDisplay:10.37,2013-06-20 13:38:00,
2013-06-20 09:43:00,63.4,53.0,30.19,ENE,63,0.0,0.0,69,0.00,CLR,,0.00,WeatherDisplay:10.37,2013-06-20 13:43:00,
2013-06-20 09:48:00,64.2,53.4,30.19,ENE,63,0.0,0.0,68,0.00,CLR,,0.00,WeatherDisplay:10.37,2013-06-20 13:48:00,
2013-06-20 09:53:00,65.5,53.8,30.19,ENE,63,0.2,1.1,66,0.00,CLR,,0.00,WeatherDisplay:10.37,2013-06-20 13:53:00,
2013-06-20 09:58:00,66.3,53.8,30.19,ENE,63,0.0,0.0,64,0.00,CLR,,0.00,WeatherDisplay:10.37,2013-06-20 13:58:00,
2013-06-20 10:03:00,67.1,54.1,30.19,ENE,63,0.2,0.0,63,0.00,CLR,,0.00,WeatherDisplay:10.37,2013-06-20 14:03:00,
2013-06-20 10:08:00,68.3,54.8,30.19,ENE,63,0.0,0.0,62,0.00,CLR,,0.00,WeatherDisplay:10.37,2013-06-20 14:08:00,
2013-06-20 10:14:00,69.4,56.7,30.19,ENE,63,0.0,1.1,64,0.00,CLR,,0.00,WeatherDisplay:10.37,2013-06-20 14:14:00,
2013-06-20 10:19:00,70.3,57.5,30.19,ENE,63,0.2,0.0,64,0.00,CLR,,0.00,WeatherDisplay:10.37,2013-06-20 14:19:00,
2013-06-20 10:24:00,70.9,57.7,30.19,ENE,63,0.0,1.1,63,0.00,CLR,,0.00,WeatherDisplay:10.37,2013-06-20 14:24:00,
2013-06-20 10:29:00,71.6,55.6,30.19,SW,219,0.0,0.0,57,0.00,CLR,,0.00,WeatherDisplay:10.37,2013-06-20 14:29:00,
2013-06-20 10:34:00,71.8,58.1,30.19,SW,214,0.0,1.1,62,0.00,CLR,,0.00,WeatherDisplay:10.37,2013-06-20 14:34:00,
2013-06-20 10:40:00,72.1,56.0,30.19,SW,214,0.0,1.1,57,0.00,CLR,,0.00,WeatherDisplay:10.37,2013-06-20 14:40:00,
2013-06-20 10:45:00,72.7,56.6,30.18,West,272,0.0,2.3,57,0.00,CLR,,0.00,WeatherDisplay:10.37,2013-06-20 14:45:00,
2013-06-20 10:50:00,73.0,56.9,30.19,WNW,290,0.5,1.1,57,0.00,CLR,,0.00,WeatherDisplay:10.37,2013-06-20 14:50:00,
2013-06-20 10:55:00,73.5,57.3,30.19,ESE,109,0.0,0.0,57,0.00,CLR,,0.00,WeatherDisplay:10.37,2013-06-20 14:55:00,
2013-06-20 11:00:00,73.7,57.5,30.19,ESE,120,0.4,3.5,57,0.00,CLR,,0.00,WeatherDisplay:10.37,2013-06-20 15:00:00,
2013-06-20 11:05:00,74.0,59.2,30.19,SSE,155,0.3,2.3,60,0.00,CLR,,0.00,WeatherDisplay:10.37,2013-06-20 15:05:00,
2013-06-20 11:11:00,74.6,56.3,30.19,SSE,154,1.7,3.5,53,0.00,CLR,,0.00,WeatherDisplay:10.37,2013-06-20 15:11:00,
2013-06-20 11:16:00,75.1,56.8,30.19,WNW,284,1.7,3.5,53,0.00,CLR,,0.00,WeatherDisplay:10.37,2013-06-20 15:16:00,
2013-06-20 11:21:00,74.9,54.4,30.19,NW,308,3.6,9.2,49,0.00,CLR,,0.00,WeatherDisplay:10.37,2013-06-20 15:21:00,
2013-06-20 11:26:00,74.9,53.9,30.19,NW,304,1.3,3.5,48,0.00,CLR,,0.00,WeatherDisplay:10.37,2013-06-20 15:26:00,
2013-06-20 11:32:00,75.3,54.8,30.20,NW,307,1.3,4.0,49,0.00,CLR,,0.00,WeatherDisplay:10.37,2013-06-20 15:32:00,
2013-06-20 11:37:00,76.0,55.5,30.20,NNW,332,0.5,2.3,49,0.00,CLR,,0.00,WeatherDisplay:10.37,2013-06-20 15:37:00,
2013-06-20 11:42:00,76.3,54.0,30.20,NW,309,0.6,2.3,46,0.00,CLR,,0.00,WeatherDisplay:10.37,2013-06-20 15:42:00,
2013-06-20 11:47:00,76.5,51.0,30.20,WNW,298,0.3,3.5,41,0.00,CLR,,0.00,WeatherDisplay:10.37,2013-06-20 15:47:00,
2013-06-20 11:53:00,76.3,51.5,30.20,South,182,3.2,4.6,42,0.00,CLR,,0.00,WeatherDisplay:10.37,2013-06-20 15:53:00,
2013-06-20 11:58:00,76.1,56.1,30.19,WNW,296,1.8,3.5,50,0.00,CLR,,0.00,WeatherDisplay:10.37,2013-06-20 15:58:00,
2013-06-20 12:03:00,76.5,51.7,30.19,WNW,287,3.0,4.6,42,0.00,CLR,,0.00,WeatherDisplay:10.37,2013-06-20 16:03:00,
2013-06-20 12:08:00,76.7,52.5,30.19,SSW,213,2.8,5.0,43,0.00,CLR,,0.00,WeatherDisplay:10.37,2013-06-20 16:08:00,
2013-06-20 12:13:00,76.7,55.0,30.19,West,264,1.1,2.3,47,0.00,CLR,,0.00,WeatherDisplay:10.37,2013-06-20 16:13:00,
2013-06-20 12:18:00,76.5,57.6,30.19,NW,311,3.5,6.9,52,0.00,CLR,,0.00,WeatherDisplay:10.37,2013-06-20 16:18:00,
2013-06-20 12:23:00,76.1,53.2,30.19,NW,308,1.0,2.3,45,0.00,CLR,,0.00,WeatherDisplay:10.37,2013-06-20 16:23:00,
2013-06-20 12:29:00,76.7,53.1,30.19,NW,316,2.6,3.5,44,0.00,CLR,,0.00,WeatherDisplay:10.37,2013-06-20 16:29:00,
2013-06-20 12:34:00,76.8,51.3,30.19,SSE,160,1.5,2.3,41,0.00,CLR,,0.00,WeatherDisplay:10.37,2013-06-20 16:34:00,
2013-06-20 12:39:00,76.8,52.6,30.19,West,266,1.1,3.5,43,0.00,CLR,,0.00,WeatherDisplay:10.37,2013-06-20 16:39:00,
2013-06-20 12:44:00,77.2,54.2,30.18,North,5,1.3,3.5,45,0.00,CLR,,0.00,WeatherDisplay:10.37,2013-06-20 16:44:00,
2013-06-20 12:49:00,77.4,54.4,30.18,SW,225,2.0,2.3,45,0.00,CLR,,0.00,WeatherDisplay:10.37,2013-06-20 16:49:00,
2013-06-20 12:54:00,77.4,52.5,30.18,NW,314,1.2,3.5,42,0.00,CLR,,0.00,WeatherDisplay:10.37,2013-06-20 16:54:00,
2013-06-20 13:00:00,77.4,51.9,30.18,NNW,338,2.0,6.0,41,0.00,CLR,,0.00,WeatherDisplay:10.37,2013-06-20 17:00:00,
2013-06-20 13:05:00,77.7,52.8,30.18,NW,312,2.1,6.0,42,0.00,CLR,,0.00,WeatherDisplay:10.37,2013-06-20 17:05:00,
2013-06-20 13:10:00,77.4,51.9,30.18,SE,129,0.1,3.5,41,0.00,CLR,,0.00,WeatherDisplay:10.37,2013-06-20 17:10:00,
2013-06-20 13:15:00,77.6,52.0,30.18,West,273,4.0,6.0,41,0.00,CLR,,0.00,WeatherDisplay:10.37,2013-06-20 17:15:00,
2013-06-20 13:20:00,77.7,57.0,30.18,WNW,296,3.2,3.5,49,0.00,CLR,,0.00,WeatherDisplay:10.37,2013-06-20 17:20:00,
2013-06-20 13:25:00,78.1,52.5,30.18,West,261,1.5,2.3,41,0.00,CLR,,0.00,WeatherDisplay:10.37,2013-06-20 17:25:00,
2013-06-20 13:30:00,78.1,52.5,30.18,West,265,1.6,3.5,41,0.00,CLR,,0.00,WeatherDisplay:10.37,2013-06-20 17:30:00,
2013-06-20 13:35:00,77.6,52.0,30.17,SSW,197,2.0,3.5,41,0.00,CLR,,0.00,WeatherDisplay:10.37,2013-06-20 17:35:00,
2013-06-20 13:40:00,77.4,52.5,30.17,West,278,4.3,5.8,42,0.00,CLR,,0.00,WeatherDisplay:10.37,2013-06-20 17:40:00,
2013-06-20 13:46:00,77.7,52.1,30.17,WSW,239,3.5,11.5,41,0.00,CLR,,0.00,WeatherDisplay:10.37,2013-06-20 17:46:00,
2013-06-20 13:51:00,77.9,53.0,30.17,WNW,303,3.4,7.0,42,0.00,CLR,,0.00,WeatherDisplay:10.37,2013-06-20 17:51:00,
2013-06-20 13:56:00,77.7,52.8,30.17,WSW,257,1.5,3.5,42,0.00,CLR,,0.00,WeatherDisplay:10.37,2013-06-20 17:56:00,
2013-06-20 14:01:00,77.9,52.3,30.17,WNW,296,2.7,9.0,41,0.00,CLR,,0.00,WeatherDisplay:10.37,2013-06-20 18:01:00,
2013-06-20 14:06:00,78.1,51.8,30.17,SW,236,0.8,3.5,40,0.00,CLR,,0.00,WeatherDisplay:10.37,2013-06-20 18:06:00,
2013-06-20 14:11:00,78.1,53.8,30.17,SE,134,2.9,3.5,43,0.00,CLR,,0.00,WeatherDisplay:10.37,2013-06-20 18:11:00,
2013-06-20 14:16:00,78.1,53.1,30.17,SW,227,1.3,3.5,42,0.00,CLR,,0.00,WeatherDisplay:10.37,2013-06-20 18:16:00,
2013-06-20 14:22:00,78.5,53.5,30.17,SSW,211,0.9,2.3,42,0.00,CLR,,0.00,WeatherDisplay:10.37,2013-06-20 18:22:00,
2013-06-20 14:27:00,79.0,51.2,30.17,WNW,295,0.7,2.3,38,0.00,CLR,,0.00,WeatherDisplay:10.37,2013-06-20 18:27:00,
2013-06-20 14:32:00,79.0,51.2,30.17,West,262,1.8,3.5,38,0.00,CLR,,0.00,WeatherDisplay:10.37,2013-06-20 18:32:00,
2013-06-20 14:37:00,78.8,51.7,30.17,SSW,201,2.6,6.9,39,0.00,CLR,,0.00,WeatherDisplay:10.37,2013-06-20 18:37:00,
2013-06-20 14:42:00,79.0,55.2,30.17,WNW,288,0.1,2.3,44,0.00,CLR,,0.00,WeatherDisplay:10.37,2013-06-20 18:42:00,
2013-06-20 14:47:00,79.2,54.1,30.17,SSW,211,1.8,3.5,42,0.00,CLR,,0.00,WeatherDisplay:10.37,2013-06-20 18:47:00,
2013-06-20 14:52:00,79.4,55.6,30.17,WSW,244,1.4,3.5,44,0.00,CLR,,0.00,WeatherDisplay:10.37,2013-06-20 18:52:00,
2013-06-20 14:57:00,79.4,56.2,30.17,WNW,298,1.5,3.5,45,0.00,CLR,,0.00,WeatherDisplay:10.37,2013-06-20 18:57:00,
2013-06-20 15:03:00,79.6,53.8,30.17,WSW,247,0.5,1.1,41,0.00,CLR,,0.00,WeatherDisplay:10.37,2013-06-20 19:03:00,
2013-06-20 15:08:00,79.8,52.6,30.17,WSW,243,1.9,3.5,39,0.00,CLR,,0.00,WeatherDisplay:10.37,2013-06-20 19:08:00,
2013-06-20 15:13:00,79.4,50.1,30.16,SSW,202,0.0,1.1,36,0.00,CLR,,0.00,WeatherDisplay:10.37,2013-06-20 19:13:00,
2013-06-20 15:18:00,79.6,50.3,30.16,West,279,2.7,7.0,36,0.00,CLR,,0.00,WeatherDisplay:10.37,2013-06-20 19:18:00,
2013-06-20 15:23:00,79.2,50.7,30.16,WNW,288,0.7,4.6,37,0.00,CLR,,0.00,WeatherDisplay:10.37,2013-06-20 19:23:00,
2013-06-20 15:28:00,78.6,52.3,30.16,West,281,0.5,3.0,40,0.00,CLR,,0.00,WeatherDisplay:10.37,2013-06-20 19:28:00,
2013-06-20 15:34:00,78.8,51.0,30.17,NW,313,1.1,3.5,38,0.00,CLR,,0.00,WeatherDisplay:10.37,2013-06-20 19:34:00,
2013-06-20 15:39:00,79.2,52.1,30.17,NW,306,1.6,3.5,39,0.00,CLR,,0.00,WeatherDisplay:10.37,2013-06-20 19:39:00,
2013-06-20 15:44:00,79.6,53.1,30.16,NW,305,0.2,1.1,40,0.00,CLR,,0.00,WeatherDisplay:10.37,2013-06-20 19:44:00,
2013-06-20 15:49:00,79.6,56.4,30.16,NW,307,2.5,4.6,45,0.00,CLR,,0.00,WeatherDisplay:10.37,2013-06-20 19:49:00,
2013-06-20 15:54:00,79.6,51.8,30.15,North,360,0.4,3.5,38,0.00,CLR,,0.00,WeatherDisplay:10.37,2013-06-20 19:54:00,
2013-06-20 16:00:00,79.8,54.7,30.15,NW,314,0.7,4.6,42,0.00,CLR,,0.00,WeatherDisplay:10.37,2013-06-20 20:00:00,
2013-06-20 16:05:00,80.1,54.9,30.16,SW,220,2.2,3.5,42,0.00,CLR,,0.00,WeatherDisplay:10.37,2013-06-20 20:05:00,
2013-06-20 16:10:00,79.9,55.4,30.15,SSW,213,1.5,3.5,43,0.00,CLR,,0.00,WeatherDisplay:10.37,2013-06-20 20:10:00,
2013-06-20 16:15:00,79.8,53.3,30.15,NW,306,0.0,1.1,40,0.00,CLR,,0.00,WeatherDisplay:10.37,2013-06-20 20:15:00,
2013-06-20 16:20:00,79.9,52.7,30.15,NW,325,1.8,4.6,39,0.00,CLR,,0.00,WeatherDisplay:10.37,2013-06-20 20:20:00,
2013-06-20 16:25:00,80.1,55.6,30.15,West,281,1.6,2.3,43,0.00,CLR,,0.00,WeatherDisplay:10.37,2013-06-20 20:25:00,
2013-06-20 16:31:00,79.9,57.3,30.15,West,267,1.3,2.3,46,0.00,CLR,,0.00,WeatherDisplay:10.37,2013-06-20 20:31:00,
2013-06-20 16:36:00,79.8,55.9,30.15,WSW,254,0.0,1.1,44,0.00,CLR,,0.00,WeatherDisplay:10.37,2013-06-20 20:36:00,
2013-06-20 16:41:00,79.8,56.6,30.15,WNW,283,1.7,3.5,45,0.00,CLR,,0.00,WeatherDisplay:10.37,2013-06-20 20:41:00,
2013-06-20 16:46:00,79.6,55.1,30.15,WSW,244,0.5,3.5,43,0.00,CLR,,0.00,WeatherDisplay:10.37,2013-06-20 20:46:00,
2013-06-20 16:51:00,79.2,55.4,30.15,South,188,1.0,4.0,44,0.00,CLR,,0.00,WeatherDisplay:10.37,2013-06-20 20:51:00,
2013-06-20 16:57:00,78.6,57.8,30.15,SE,136,0.5,2.3,49,0.00,CLR,,0.00,WeatherDisplay:10.37,2013-06-20 20:57:00,
2013-06-20 17:02:00,78.5,56.6,30.15,WSW,249,0.2,1.1,47,0.00,CLR,,0.00,WeatherDisplay:10.37,2013-06-20 21:02:00,
2013-06-20 17:07:00,78.3,57.6,30.15,SW,234,0.4,2.3,49,0.00,CLR,,0.00,WeatherDisplay:10.37,2013-06-20 21:07:00,
2013-06-20 17:12:00,78.1,56.8,30.15,SW,234,0.8,2.3,48,0.00,CLR,,0.00,WeatherDisplay:10.37,2013-06-20 21:12:00,
2013-06-20 17:17:00,77.7,56.4,30.15,SE,138,0.1,0.0,48,0.00,CLR,,0.00,WeatherDisplay:10.37,2013-06-20 21:17:00,
2013-06-20 17:22:00,77.4,56.7,30.15,SE,139,0.2,1.1,49,0.00,CLR,,0.00,WeatherDisplay:10.37,2013-06-20 21:22:00,
2013-06-20 17:28:00,77.6,56.9,30.15,SW,226,1.2,3.5,49,0.00,CLR,,0.00,WeatherDisplay:10.37,2013-06-20 21:28:00,
2013-06-20 17:33:00,77.6,57.5,30.14,SSE,148,1.2,3.5,50,0.00,CLR,,0.00,WeatherDisplay:10.37,2013-06-20 21:33:00,
2013-06-20 17:38:00,77.6,56.9,30.14,SSW,192,0.2,1.1,49,0.00,CLR,,0.00,WeatherDisplay:10.37,2013-06-20 21:38:00,
2013-06-20 17:43:00,77.6,57.5,30.14,SE,136,0.1,1.1,50,0.00,CLR,,0.00,WeatherDisplay:10.37,2013-06-20 21:43:00,
2013-06-20 17:48:00,77.4,57.9,30.14,SSW,201,1.8,5.8,51,0.00,CLR,,0.00,WeatherDisplay:10.37,2013-06-20 21:48:00,
2013-06-20 17:53:00,77.0,56.9,30.14,SW,227,0.7,1.1,50,0.00,CLR,,0.00,WeatherDisplay:10.37,2013-06-20 21:53:00,
2013-06-20 17:58:00,77.0,58.0,30.14,SW,217,0.7,4.6,52,0.00,CLR,,0.00,WeatherDisplay:10.37,2013-06-20 21:58:00,
2013-06-20 18:04:00,77.2,56.6,30.14,South,180,2.3,5.8,49,0.00,CLR,,0.00,WeatherDisplay:10.37,2013-06-20 22:04:00,
2013-06-20 18:09:00,77.4,56.2,30.14,West,272,0.5,1.1,48,0.00,CLR,,0.00,WeatherDisplay:10.37,2013-06-20 22:09:00,
2013-06-20 18:14:00,77.2,56.6,30.14,SW,229,0.8,4.0,49,0.00,CLR,,0.00,WeatherDisplay:10.37,2013-06-20 22:14:00,
2013-06-20 18:19:00,76.8,57.3,30.14,SSE,166,0.6,2.3,51,0.00,CLR,,0.00,WeatherDisplay:10.37,2013-06-20 22:19:00,
2013-06-20 18:24:00,76.7,57.7,30.14,South,187,0.0,1.1,52,0.00,CLR,,0.00,WeatherDisplay:10.37,2013-06-20 22:24:00,
2013-06-20 18:30:00,76.5,58.1,30.14,SW,235,1.4,3.5,53,0.00,CLR,,0.00,WeatherDisplay:10.37,2013-06-20 22:30:00,
2013-06-20 18:35:00,76.1,56.7,30.14,SW,214,1.4,4.0,51,0.00,CLR,,0.00,WeatherDisplay:10.37,2013-06-20 22:35:00,
2013-06-20 18:40:00,76.1,57.7,30.14,West,260,1.9,6.9,53,0.00,CLR,,0.00,WeatherDisplay:10.37,2013-06-20 22:40:00,
2013-06-20 18:45:00,76.1,57.7,30.15,SSE,161,2.3,2.3,53,0.00,CLR,,0.00,WeatherDisplay:10.37,2013-06-20 22:45:00,
2013-06-20 18:51:00,75.8,58.0,30.14,SSW,205,0.1,1.0,54,0.00,CLR,,0.00,WeatherDisplay:10.37,2013-06-20 22:51:00,
2013-06-20 18:56:00,75.6,56.2,30.14,SW,228,2.1,4.6,51,0.00,CLR,,0.00,WeatherDisplay:10.37,2013-06-20 22:56:00,
2013-06-20 19:01:00,75.6,58.8,30.15,SSE,152,1.9,3.5,56,0.00,CLR,,0.00,WeatherDisplay:10.37,2013-06-20 23:01:00,
2013-06-20 19:06:00,75.4,58.1,30.15,SSW,197,0.2,1.1,55,0.00,CLR,,0.00,WeatherDisplay:10.37,2013-06-20 23:06:00,
2013-06-20 19:11:00,75.4,58.6,30.15,SSW,200,0.1,1.1,56,0.00,CLR,,0.00,WeatherDisplay:10.37,2013-06-20 23:11:00,
2013-06-20 19:17:00,75.3,58.5,30.15,SSW,200,0.0,1.1,56,0.00,CLR,,0.00,WeatherDisplay:10.37,2013-06-20 23:17:00,
2013-06-20 19:22:00,75.1,58.3,30.15,SSW,201,0.8,1.1,56,0.00,CLR,,0.00,WeatherDisplay:10.37,2013-06-20 23:22:00,
2013-06-20 19:27:00,74.7,58.9,30.15,SW,229,1.7,4.6,58,0.00,CLR,,0.00,WeatherDisplay:10.37,2013-06-20 23:27:00,
2013-06-20 19:32:00,74.6,58.8,30.15,SSW,200,0.0,1.1,58,0.00,CLR,,0.00,WeatherDisplay:10.37,2013-06-20 23:32:00,
2013-06-20 19:38:00,74.2,59.4,30.15,SW,227,0.9,3.5,60,0.00,CLR,,0.00,WeatherDisplay:10.37,2013-06-20 23:38:00,
2013-06-20 19:43:00,73.9,59.6,30.15,SW,223,0.2,1.1,61,0.00,CLR,,0.00,WeatherDisplay:10.37,2013-06-20 23:43:00,
2013-06-20 19:48:00,73.5,59.7,30.15,SW,223,0.0,1.1,62,0.00,CLR,,0.00,WeatherDisplay:10.37,2013-06-20 23:48:00,
2013-06-20 19:53:00,73.0,59.7,30.15,South,190,1.6,3.5,63,0.00,CLR,,0.00,WeatherDisplay:10.37,2013-06-20 23:53:00,
2013-06-20 19:58:00,72.7,59.4,30.15,SSW,203,0.0,1.1,63,0.00,CLR,,0.00,WeatherDisplay:10.37,2013-06-20 23:58:00,
2013-06-20 20:04:00,72.5,59.6,30.15,SW,218,0.2,2.3,64,0.00,CLR,,0.00,WeatherDisplay:10.37,2013-06-21 00:04:00,
2013-06-20 20:09:00,72.1,59.7,30.15,SW,218,0.0,0.0,65,0.00,CLR,,0.00,WeatherDisplay:10.37,2013-06-21 00:09:00,
2013-06-20 20:14:00,71.8,59.4,30.15,SW,218,0.1,2.3,65,0.00,CLR,,0.00,WeatherDisplay:10.37,2013-06-21 00:14:00,
2013-06-20 20:20:00,71.5,59.5,30.15,SW,215,0.1,1.1,66,0.00,CLR,,0.00,WeatherDisplay:10.37,2013-06-21 00:20:00,
2013-06-20 20:25:00,71.1,59.2,30.15,WSW,257,0.4,1.1,66,0.00,CLR,,0.00,WeatherDisplay:10.37,2013-06-21 00:25:00,
2013-06-20 20:30:00,70.8,59.3,30.15,SE,125,0.5,2.3,67,0.00,CLR,,0.00,WeatherDisplay:10.37,2013-06-21 00:30:00,
2013-06-20 20:35:00,70.4,58.9,30.15,SSE,161,0.5,2.3,67,0.00,CLR,,0.00,WeatherDisplay:10.37,2013-06-21 00:35:00,
2013-06-20 20:41:00,70.1,59.0,30.15,SE,144,1.1,1.1,68,0.00,CLR,,0.00,WeatherDisplay:10.37,2013-06-21 00:41:00,
2013-06-20 20:46:00,69.8,58.8,30.15,South,172,0.0,1.1,68,0.00,CLR,,0.00,WeatherDisplay:10.37,2013-06-21 00:46:00,
2013-06-20 20:51:00,69.4,58.4,30.16,SW,235,1.5,3.5,68,0.00,CLR,,0.00,WeatherDisplay:10.37,2013-06-21 00:51:00,
2013-06-20 20:56:00,69.1,58.5,30.16,SSE,167,0.4,2.3,69,0.00,CLR,,0.00,WeatherDisplay:10.37,2013-06-21 00:56:00,
2013-06-20 21:02:00,68.9,58.7,30.16,WSW,247,0.2,3.5,70,0.00,CLR,,0.00,WeatherDisplay:10.37,2013-06-21 01:02:00,
2013-06-20 21:07:00,68.6,58.4,30.15,West,265,0.6,2.3,70,0.00,CLR,,0.00,WeatherDisplay:10.37,2013-06-21 01:07:00,
2013-06-20 21:12:00,68.4,58.2,30.16,WSW,254,0.1,1.1,70,0.00,CLR,,0.00,WeatherDisplay:10.37,2013-06-21 01:12:00,
2013-06-20 21:17:00,68.3,58.1,30.16,WSW,244,1.1,2.0,70,0.00,CLR,,0.00,WeatherDisplay:10.37,2013-06-21 01:17:00,
2013-06-20 21:23:00,68.1,57.9,30.16,South,188,1.0,2.3,70,0.00,CLR,,0.00,WeatherDisplay:10.37,2013-06-21 01:23:00,
2013-06-20 21:28:00,67.8,57.3,30.16,SSE,163,0.1,1.1,69,0.00,CLR,,0.00,WeatherDisplay:10.37,2013-06-21 01:28:00,
2013-06-20 21:33:00,67.6,57.5,30.17,SSE,161,0.0,1.1,70,0.00,CLR,,0.00,WeatherDisplay:10.37,2013-06-21 01:33:00,
2013-06-20 21:38:00,67.6,57.5,30.17,South,183,0.3,1.1,70,0.00,CLR,,0.00,WeatherDisplay:10.37,2013-06-21 01:38:00,
2013-06-20 21:43:00,67.3,57.2,30.17,South,183,0.2,3.5,70,0.00,CLR,,0.00,WeatherDisplay:10.37,2013-06-21 01:43:00,
2013-06-20 21:48:00,67.3,57.6,30.17,WSW,244,0.0,1.1,71,0.00,CLR,,0.00,WeatherDisplay:10.37,2013-06-21 01:48:00,
2013-06-20 21:54:00,67.1,57.4,30.17,West,273,0.7,2.3,71,0.00,CLR,,0.00,WeatherDisplay:10.37,2013-06-21 01:54:00,
2013-06-20 21:59:00,67.1,57.4,30.17,NW,321,0.0,2.3,71,0.00,CLR,,0.00,WeatherDisplay:10.37,2013-06-21 01:59:00,
2013-06-20 22:04:00,66.8,57.1,30.17,NE,44,0.1,2.3,71,0.00,CLR,,0.00,WeatherDisplay:10.37,2013-06-21 02:04:00,
2013-06-20 22:09:00,66.6,57.3,30.17,NE,44,0.0,0.0,72,0.00,CLR,,0.00,WeatherDisplay:10.37,2013-06-21 02:09:00,
2013-06-20 22:14:00,66.4,57.1,30.17,NE,44,0.0,0.0,72,0.00,CLR,,0.00,WeatherDisplay:10.37,2013-06-21 02:14:00,
2013-06-20 22:19:00,66.1,57.2,30.17,NE,44,0.0,0.0,73,0.00,CLR,,0.00,WeatherDisplay:10.37,2013-06-21 02:19:00,
2013-06-20 22:24:00,66.0,57.5,30.17,NE,44,0.0,1.1,74,0.00,CLR,,0.00,WeatherDisplay:10.37,2013-06-21 02:24:00,
2013-06-20 22:30:00,65.6,57.5,30.18,NE,44,0.0,0.0,75,0.00,CLR,,0.00,WeatherDisplay:10.37,2013-06-21 02:30:00,
2013-06-20 22:35:00,65.3,57.5,30.17,NE,44,0.0,0.0,76,0.00,CLR,,0.00,WeatherDisplay:10.37,2013-06-21 02:35:00,
2013-06-20 22:40:00,65.0,57.2,30.18,NE,44,0.0,0.0,76,0.00,CLR,,0.00,WeatherDisplay:10.37,2013-06-21 02:40:00,
2013-06-20 22:45:00,64.7,57.7,30.17,NE,44,0.0,0.0,78,0.00,CLR,,0.00,WeatherDisplay:10.37,2013-06-21 02:45:00,
2013-06-20 22:50:00,64.3,57.6,30.18,NE,44,0.0,0.0,79,0.00,CLR,,0.00,WeatherDisplay:10.37,2013-06-21 02:50:00,
2013-06-20 22:55:00,64.0,57.4,30.18,NE,44,0.0,0.0,79,0.00,CLR,,0.00,WeatherDisplay:10.37,2013-06-21 02:55:00,
2013-06-20 23:01:00,63.7,57.4,30.18,NE,44,0.0,0.0,80,0.00,CLR,,0.00,WeatherDisplay:10.37,2013-06-21 03:01:00,
2013-06-20 23:06:00,63.5,57.2,30.18,NE,44,0.0,0.0,80,0.00,CLR,,0.00,WeatherDisplay:10.37,2013-06-21 03:06:00,
2013-06-20 23:11:00,63.4,57.5,30.17,NE,44,0.0,0.0,81,0.00,CLR,,0.00,WeatherDisplay:10.37,2013-06-21 03:11:00,
2013-06-20 23:16:00,63.1,57.2,30.18,NE,44,0.0,1.1,81,0.00,CLR,,0.00,WeatherDisplay:10.37,2013-06-21 03:16:00,
2013-06-20 23:22:00,62.7,57.1,30.18,NE,44,0.0,0.0,82,0.00,CLR,,0.00,WeatherDisplay:10.37,2013-06-21 03:22:00,
2013-06-20 23:27:00,62.6,57.0,30.18,NE,44,0.0,0.0,82,0.00,CLR,,0.00,WeatherDisplay:10.37,2013-06-21 03:27:00,
2013-06-20 23:32:00,62.4,57.2,30.18,NE,44,0.0,0.0,83,0.00,CLR,,0.00,WeatherDisplay:10.37,2013-06-21 03:32:00,
2013-06-20 23:37:00,62.1,56.9,30.18,NE,44,0.0,0.0,83,0.00,CLR,,0.00,WeatherDisplay:10.37,2013-06-21 03:37:00,
2013-06-20 23:42:00,62.0,57.4,30.18,NE,44,0.0,0.0,85,0.00,CLR,,0.00,WeatherDisplay:10.37,2013-06-21 03:42:00,
2013-06-20 23:48:00,61.8,57.2,30.18,NE,44,0.0,0.0,85,0.00,CLR,,0.00,WeatherDisplay:10.37,2013-06-21 03:48:00,
2013-06-20 23:53:00,61.5,56.9,30.19,NE,44,0.0,0.0,85,0.00,CLR,,0.00,WeatherDisplay:10.37,2013-06-21 03:53:00,
2013-06-20 23:58:00,61.2,57.0,30.19,NE,44,0.0,0.0,86,0.00,CLR,,0.00,WeatherDisplay:10.37,2013-06-21 03:58:00,